This demonstration page uses our WeatherBlox Daily Observations layout. Learn more.

Left ArrowRight Arrow

39.12711, -84.51439

Hourly Observations for June 25, 2018

Temp ( °F °C ) Dew Point ( °F °C ) Humidity (%) Winds ( mph kmh ) Pressure ( in mb ) Visibility ( mi km ) Precip ( " mm )
12:53 am 00:53 Mostly Clear 71 21.7 69 20.6 94 94 N N/A 30.01 1016 10 16 N/A
1:53 am 01:53 Clear 71 21.7 68 20 90 90 NNE 5 7 30.00 1016 10 16 N/A
2:53 am 02:53 Mostly Cloudy 68 20 68 20 100 100 N N/A 30.01 1016 10 16 N/A
3:53 am 03:53 Cloudy 69 20.6 68 20 96 96 NNE 7 11 30.02 1017 10 16 N/A
4:53 am 04:53 Partly Cloudy 69 20.6 65 18.3 87 87 NE 6 9 30.03 1017 10 16 N/A
5:53 am 05:53 Partly Cloudy 69 20.6 65 18.3 87 87 NE 3 6 30.04 1017 10 16 N/A
6:53 am 06:53 Mostly Cloudy 69 20.6 66 18.9 90 90 NNE 7 11 30.06 1018 10 16 N/A
7:53 am 07:53 Partly Cloudy 70 21.1 66 18.9 87 87 NE 7 11 30.08 1019 10 16 N/A
8:53 am 08:53 Cloudy 70 21.1 66 18.9 87 87 NE 7 11 30.09 1019 10 16 N/A
9:53 am 09:53 Mostly Cloudy with Light Rain 70 21.1 67 19.4 90 90 NE 8 13 30.11 1020 10 16 N/A
10:53 am 10:53 Cloudy with Light Rain 70 21.1 67 19.4 90 90 E 5 7 30.10 1019 10 16 0.02 0.51
11:53 am 11:53 Mostly Sunny 72 22.2 67 19.4 84 84 ENE 10 17 30.11 1020 10 16 N/A
12:53 pm 12:53 Cloudy 71 21.7 67 19.4 87 87 NE 7 11 30.12 1020 10 16 N/A
1:53 pm 13:53 Mostly Cloudy with Light Rain 71 21.7 69 20.6 94 94 NE 8 13 30.11 1020 5 8 0.03 0.76
2:53 pm 14:53 Mostly Cloudy 72 22.2 68 20 87 87 E 10 17 30.08 1019 10 16 0.01 0.25
3:53 pm 15:53 Mostly Cloudy 74 23.3 68 20 82 82 ENE 7 11 30.08 1019 10 16 N/A
4:53 pm 16:53 Cloudy 74 23.3 68 20 82 82 E 7 11 30.09 1019 10 16 N/A
5:53 pm 17:53 Cloudy 74 23.3 68 20 82 82 ENE 8 13 30.08 1019 10 16 N/A
6:53 pm 18:53 Cloudy 75 23.9 67 19.4 76 76 ENE 7 11 30.07 1018 10 16 N/A
7:53 pm 19:53 Cloudy 74 23.3 68 20 82 82 ENE 6 9 30.08 1019 10 16 N/A
8:53 pm 20:53 Partly Cloudy 73 22.8 67 19.4 81 81 E 5 7 30.08 1019 10 16 N/A
9:53 pm 21:53 Clear with Light Rain 70 21.1 67 19.4 90 90 N N/A 30.09 1019 10 16 N/A
10:53 pm 22:53 Clear 68 20 67 19.4 96 96 N N/A 30.09 1019 10 16 N/A
11:53 pm 23:53 Cloudy 68 20 68 20 100 100 N N/A 30.09 1019 10 16 N/A

Powered by AerisWeather